Location: Oregon Trail
(41.1872°N, 102.0741°W)
Time: 18:17:53
(UTC+00:00)

ALOS - Pass Details

Date: 19 November 2019
Orbit: 683 x 685 km, 97.8° (Epoch: 15 December)

Event Time Altitude Azimuth Distance (km) Brightness Sun altitude
Rises 12:48:49 0° 5° (N) 3,057 5.5 -9.9°
Reaches altitude 10° 12:51:09 10° 358° (N) 2,137 4.6 -9.5°
Maximum altitude 12:55:31 41° 289° (WNW) 996 2.7 -8.7°
Drops below altitude 10° 12:59:52 10° 220° (SW) 2,123 4.6 -8.0°
Sets 13:02:11 0° 213° (SSW) 3,034 5.5 -7.5°
